sat.trackr.live / text

‹ back to catalog

STARLINK-33651

NORAD 63588 · 2025-076V

PAYLOAD ACTIVE UNKNOWN

§ Identity

Operator
Country
US
Launch date
2025-04-14
Launch site
AFETR
Launch vehicle
Mass (kg)
RCS (m²)

Purposes: comms

External: N2YO · Heavens-Above · Gunter

§ Orbital elements

Epoch: 2026-09-20T10:23:00.906432Z

Period
94.27 min
Inclination
43.0044°
Eccentricity
0.0001590
Mean motion
15.27587731 rev/d
Perigee alt
481.9 km
Apogee alt
484.1 km
Semi-major
6,861.2 km
B*
3.4982e-4
RAAN
301.9015°
Arg perigee
273.6839°
Mean anomaly
86.3831°
Rev number
8,161

§ Raw data

STARLINK-336511 63588U 25076V   26263.43264938  .00009379  00000+0  34982-3 0  99942 63588  43.0044 301.9015 0001590 273.6839  86.3831 15.27587731 81610

JSON: /api/v1/satellites/63588 · /tle

For live sub-satellite position, see the globe view (requires WebGL).

§ Visibility from observer

Set your observer location to see the next 7 days of passes ≥ 10°. The values pass through the URL so the page stays shareable.

No JS? Fill the form by hand. The geolocation button needs JavaScript.